[Date Prev][Date Next][Thread Prev][Thread Next] - [Date Index][Thread Index][Author Index]
ISS 2Line Keps 02/16
- Subject: [sarex] ISS 2Line Keps 02/16
- From: "Scott Avery" <wa6lie@xxxxxxx>
- Date: Sat, 16 Feb 2002 11:47:09 -0800
ISS
1 25544U 98067A 02047.47234954 .00068698 00000-0 78189-3 0 838
2 25544 51.6390 299.7085 0005276 81.2590 275.0539 15.61624347185195
_________________________________________________________________
Send and receive Hotmail on your mobile device: http://mobile.msn.com
----
Via the sarex mailing list at AMSAT.ORG courtesy of AMSAT-NA.
To unsubscribe, send "unsubscribe sarex" to Majordomo@amsat.org
AMSAT Home